KB2M Weather Reports


time (UTC)temp
F
wind
direction
speed
knots
gust
knots
rain 1hr
in
rain 24hr
in
rain mn
in
humidity
%
barometer
mb
20260510170628 78 17 5.2 9.6 0.00 0.25 0.00 83 1017.9
20260510165628 79 357 4.3 10.4 0.00 0.25 0.00 82 1018.2
20260510164627 80 8 5.2 10.4 0.00 0.25 0.00 82 1018.2
20260510163626 79 21 7.0 13.0 0.00 0.25 0.00 85 1018.2
20260510162626 85 235 4.3 14.8 0.00 0.25 0.00 70 1018.2
20260510161625 84 219 4.3 7.8 0.00 0.25 0.00 69 1018.2
20260510160625 84 219 3.5 7.8 0.00 0.25 0.00 72 1018.2
20260510155624 83 222 4.3 10.4 0.00 0.25 0.00 72 1018.2
20260510154623 83 206 3.5 7.0 0.00 0.25 0.00 74 1018.2
20260510153622 82 227 6.1 9.6 0.00 0.25 0.00 76 1018.6
20260510152622 82 226 4.3 8.7 0.00 0.25 0.00 75 1018.2
20260510151621 81 220 4.3 8.7 0.00 0.25 0.00 76 1018.2
20260510150620 82 211 4.3 8.7 0.00 0.25 0.00 77 1018.2
20260510145620 82 210 4.3 7.8 0.00 0.25 0.00 76 1018.2
20260510144619 81 220 5.2 8.7 0.00 0.25 0.00 76 1018.2
20260510143618 81 219 3.5 8.7 0.00 0.25 0.00 77 1017.9
20260510142618 80 225 5.2 8.7 0.00 0.25 0.00 79 1018.2
20260510141617 80 221 4.3 7.0 0.00 0.25 0.00 80 1017.9
20260510140617 79 218 4.3 8.7 0.00 0.25 0.00 81 1017.9
20260510135616 79 220 5.2 8.7 0.00 0.25 0.00 82 1017.9
20260510134616 78 209 3.5 7.0 0.00 0.25 0.00 84 1017.9
20260510133615 78 203 3.5 7.0 0.00 0.25 0.00 87 1017.6
20260510132615 77 202 3.5 5.2 0.00 0.25 0.00 89 1017.6
20260510131614 76 213 4.3 6.1 0.00 0.25 0.00 92 1017.6
20260510130614 76 194 2.6 5.2 0.00 0.25 0.00 93 1017.6
20260510125613 76 198 3.5 6.1 0.00 0.25 0.00 94 1017.2
20260510124612 75 201 2.6 5.2 0.00 0.25 0.00 95 1017.2
20260510123611 74 222 2.6 5.2 0.00 0.25 0.00 96 1017.2
20260510122611 74 202 2.6 5.2 0.00 0.25 0.00 97 1016.9
20260510121541 74 219 1.7 3.5 0.00 0.25 0.00 97 1016.9
20260510120541 73 211 2.6 4.3 0.00 0.25 0.00 98 1016.5
20260510115511 73 241 1.7 3.5 0.00 0.25 0.00 98 1016.5
20260510114441 72 226 1.7 3.5 0.00 0.25 0.00 98 1016.9
20260510113441 72 193 1.7 3.5 0.00 0.25 0.00 98 1016.5
20260510112441 72 174 1.7 3.5 0.00 0.25 0.00 98 1016.2
20260510111441 72 181 1.7 2.6 0.00 0.25 0.00 98 1016.2
20260510110411 72 208 0.9 3.5 0.00 0.25 0.00 98 1016.2
20260510105411 72 207 1.7 3.5 0.00 0.25 0.00 98 1016.2
20260510104411 72 185 1.7 4.3 0.00 0.25 0.00 98 1015.9
20260510103411 72 174 1.7 3.5 0.00 0.25 0.00 98 1015.5
20260510102410 73 222 1.7 3.5 0.00 0.25 0.00 98 1015.5
20260510101410 73 209 1.7 3.5 0.00 0.25 0.00 97 1015.5
20260510100339 73 181 1.7 3.5 0.00 0.25 0.00 97 1015.2
20260510095338 73 204 1.7 3.5 0.00 0.25 0.00 97 1015.2
20260510094338 73 186 1.7 3.5 0.00 0.25 0.00 97 1015.2
20260510093337 73 229 0.9 3.5 0.00 0.25 0.00 97 1015.2
20260510092337 73 208 1.7 3.5 0.00 0.25 0.00 97 1015.2
20260510091336 73 165 0.9 2.6 0.00 0.25 0.00 97 1015.2
20260510090335 73 212 1.7 3.5 0.00 0.25 0.00 97 1014.8
20260510085335 73 175 1.7 4.3 0.00 0.25 0.00 97 1014.8
20260510084334 73 188 1.7 6.1 0.00 0.25 0.00 97 1014.8
20260510083333 73 154 1.7 4.3 0.00 0.25 0.00 97 1014.5
20260510082333 73 130 1.7 4.3 0.00 0.25 0.00 97 1014.5
20260510081332 73 132 1.7 5.2 0.00 0.25 0.00 97 1014.5
20260510080332 73 150 1.7 4.3 0.00 0.25 0.00 97 1014.5
20260510075331 73 153 2.6 5.2 0.00 0.25 0.00 97 1014.2
20260510074331 73 166 2.6 6.1 0.00 0.25 0.00 97 1014.5
20260510073330 73 148 2.6 6.1 0.00 0.25 0.00 96 1014.5
20260510072330 73 157 0.9 4.3 0.00 0.25 0.00 96 1014.5
20260510071329 73 146 1.7 4.3 0.00 0.25 0.00 96 1014.5
20260510070329 73 171 1.7 5.2 0.00 0.25 0.00 96 1014.5
20260510065328 73 132 2.6 5.2 0.00 0.25 0.00 96 1014.8
20260510064327 73 164 1.7 2.6 0.00 0.25 0.00 96 1015.2
20260510063326 73 176 1.7 3.5 0.00 0.25 0.00 96 1015.2
20260510062326 73 126 2.6 4.3 0.00 0.25 0.00 96 1015.5
20260510061325 73 167 1.7 4.3 0.00 0.25 0.00 96 1015.5
20260510060324 73 156 1.7 5.2 0.00 0.25 0.00 96 1015.5
20260510055323 73 165 1.7 3.5 0.00 0.25 0.00 96 1015.9
20260510054323 73 173 1.7 3.5 0.00 0.25 0.00 96 1015.9
20260510053322 73 167 0.9 3.5 0.00 0.25 0.00 97 1015.9
20260510052321 73 179 0.9 2.6 0.00 0.25 0.00 97 1015.9
20260510051321 73 152 0.9 3.5 0.00 0.25 0.00 97 1016.2
20260510050320 73 176 1.7 3.5 0.00 0.25 0.00 97 1016.2
20260510045319 73 161 1.7 2.6 0.00 0.25 0.00 97 1016.2
20260510044319 73 175 1.7 2.6 0.00 0.25 0.00 96 1016.2
20260510043318 73 179 1.7 2.6 0.00 0.25 0.00 96 1016.2
20260510042317 73 166 0.9 1.7 0.00 0.25 0.00 96 1016.2
20260510041317 73 182 0.9 1.7 0.00 0.25 0.00 96 1016.2
20260510040316 73 172 0.9 1.7 0.00 0.25 0.00 95 1016.2
20260510035315 73 173 0.9 1.7 0.00 0.25 0.25 95 1016.5
20260510034315 73 183 0.9 1.7 0.00 0.25 0.25 95 1016.5
20260510033314 74 182 0.9 2.6 0.00 0.25 0.25 95 1016.2
20260510032314 74 171 1.7 2.6 0.00 0.25 0.25 95 1016.2
20260510031313 74 186 0.9 2.6 0.00 0.25 0.25 94 1016.2
20260510030312 74 137 0.9 1.7 0.00 0.25 0.25 94 1016.2
20260510025312 74 184 0.9 1.7 0.00 0.25 0.25 94 1016.2
20260510024312 74 152 0.9 1.7 0.00 0.25 0.25 94 1016.2
20260510023312 74 128 0.9 1.7 0.00 0.25 0.25 94 1016.2
20260510022312 74 187 0.9 3.5 0.00 0.25 0.25 94 1015.9
20260510021242 74 122 0.9 2.6 0.00 0.25 0.25 94 1015.9
20260510020242 74 144 0.9 1.7 0.00 0.25 0.25 94 1015.9
20260510015242 74 102 0.9 3.5 0.00 0.25 0.25 93 1015.9
20260510014213 74 116 1.7 2.6 0.00 0.25 0.25 94 1015.5
20260510013212 74 110 1.7 3.5 0.00 0.25 0.25 93 1015.5
20260510012212 74 128 0.9 2.6 0.00 0.25 0.25 93 1015.5
20260510011142 74 89 0.9 2.6 0.00 0.25 0.25 93 1015.2
20260510010142 74 102 0.9 2.6 0.00 0.25 0.25 93 1015.5
20260510005142 75 228 0.0 1.7 0.00 0.25 0.25 93 1015.2
20260510004141 75 319 0.0 1.7 0.00 0.25 0.25 92 1015.2
20260510003140 75 0 0.0 1.7 0.00 0.25 0.25 92 1015.2
20260510002140 75 230 1.7 2.6 0.00 0.25 0.25 92 1014.8
20260510001139 75 342 0.0 1.7 0.00 0.25 0.25 91 1014.8
20260510000139 75 353 0.9 1.7 0.00 0.25 0.25 90 1014.8
20260509235138 75 356 0.9 2.6 0.00 0.25 0.25 89 1014.5
20260509234138 75 347 0.9 2.6 0.00 0.25 0.25 89 1014.8
20260509233137 75 6 0.9 2.6 0.00 0.25 0.25 88 1014.5
20260509232136 75 13 0.9 3.5 0.00 0.25 0.25 88 1014.5
20260509231136 75 357 0.9 4.3 0.00 0.25 0.25 88 1014.5
20260509230135 75 351 1.7 4.3 0.00 0.25 0.25 88 1014.5
20260509225134 75 15 0.9 3.5 0.00 0.27 0.25 88 1014.2
20260509224134 75 12 0.9 2.6 0.00 0.33 0.25 88 1014.2
20260509223133 75 9 1.7 4.3 0.00 0.52 0.25 88 1014.2
20260509222133 75 16 1.7 3.5 0.00 0.58 0.25 88 1014.5
20260509221133 75 14 1.7 3.5 0.00 0.61 0.25 88 1014.2
20260509220132 75 18 1.7 3.5 0.00 0.71 0.25 89 1014.2
20260509215132 74 27 1.7 3.5 0.00 0.77 0.25 89 1014.5
20260509214131 75 306 0.9 3.5 0.00 0.87 0.25 89 1014.2
20260509213131 75 259 0.9 3.5 0.01 0.93 0.25 88 1014.5
20260509212130 74 356 1.7 5.2 0.01 0.94 0.25 88 1014.2
20260509211129 75 342 0.9 3.5 0.02 0.95 0.25 88 1014.2
20260509210129 75 265 0.9 5.2 0.03 0.96 0.25 89 1013.8
20260509205128 76 246 3.5 9.6 0.11 0.96 0.25 89 1014.2
20260509204127 77 264 1.7 7.0 0.19 0.96 0.25 92 1014.2
20260509203127 77 300 0.9 3.5 0.24 0.95 0.24 93 1014.2
20260509202126 77 12 2.6 4.3 0.24 0.95 0.24 92 1013.8
20260509201126 77 36 1.7 7.0 0.23 0.94 0.23 92 1013.8
20260509200125 77 227 3.5 7.0 0.22 0.93 0.22 92 1014.5
20260509195125 78 311 1.7 4.3 0.14 0.85 0.14 90 1014.2
20260509194124 79 11 2.6 6.1 0.06 0.77 0.06 85 1014.2
20260509193123 80 11 2.6 5.2 0.00 0.71 0.00 80 1013.8
20260509192123 81 8 3.5 7.0 0.00 0.71 0.00 79 1013.5
20260509191122 82 17 3.5 6.1 0.00 0.71 0.00 77 1013.5
20260509190121 82 12 3.5 5.2 0.00 0.71 0.00 74 1013.5
20260509185121 84 246 3.5 7.8 0.00 0.71 0.00 66 1013.5
20260509184120 84 245 4.3 7.0 0.00 0.71 0.00 65 1013.8
20260509183119 84 235 4.3 9.6 0.00 0.71 0.00 66 1014.2
20260509182119 84 230 5.2 10.4 0.00 0.71 0.00 65 1014.2
20260509181118 84 229 4.3 9.6 0.00 0.71 0.00 67 1014.5
20260509180118 84 208 3.5 8.7 0.00 0.71 0.00 66 1014.5
20260509175117 83 222 6.1 10.4 0.00 0.71 0.00 67 1014.5
20260509174117 83 221 5.2 8.7 0.00 0.71 0.00 67 1014.5
20260509173116 83 228 6.1 8.7 0.00 0.71 0.00 67 1014.5
20260509172116 83 239 3.5 7.0 0.00 0.71 0.00 68 1014.5